Weather History for Nueva Ocotepeque, Honduras

Change the Weather History Date:

Monday, October 8, 2012

  Actual Average (MHTG) Record (MHTG)
Temperature  
Mean Temperature 74 °F -  
Max Temperature 83 °F 80 °F 89 °F (1999)
Min Temperature 65 °F 63 °F 60 °F (2010)
Cooling Degree Days 9    
Growing Degree Days 24 (Base 50)    
Moisture  
Dew Point 71 °F    
Average Humidity 87    
Maximum Humidity 100    
Minimum Humidity 58    
Precipitation  
Precipitation 0.20 in - - ()
Sea Level Pressure  
Sea Level Pressure 29.86 in    
Wind  
Wind Speed 4 mph ()    
Max Wind Speed 21 mph    
Max Gust Speed 29 mph    
Visibility 6.2 miles    
Events Rain , Thunderstorm    
Averages and records for this station are not official NWS values.
T = Trace of Precipitation, MM = Missing Value Source: Averaged Metar Reports

Daily Weather History Graph

Daily Weather History Graph

Search for Another Location

Airport:

Trip Planner

Search our weather history database for the weather conditions in past years. The results will help you decide how hot, cold, wet, or windy it might be!

Date:

Astronomy

Oct. 08, 2012 Rise Set
Actual Time 5:40 AM CST 5:34 PM CST
Civil Twilight 5:19 AM CST 5:56 PM CST
Nautical Twilight 4:54 AM CST 6:20 PM CST
Astronomical Twilight 4:29 AM CST 6:45 PM CST
Moon No Moon Rise 12:25 PM CST (10/8)
Length of Visible Light 12h 36m
Length of Day
11h 53m
Last Quarter, 46% of the Moon is Illuminated
Oct 8
Last Quarter
Oct 15
New
Oct 21
First Quarter
Oct 29
Full
Nov 6
Last Quarter

Hourly Weather History & Observations

Time (CST) Temp. Heat Index Dew Point Humidity Pressure Visibility Wind Dir Wind Speed Gust Speed Precip Events Conditions
12:08 AM 71.6 °F - 69.8 °F 94% 29.87 in 6.2 mi Calm Calm - N/A   Overcast
12:17 AM 71.6 °F - 69.8 °F 94% 29.87 in 6.2 mi Calm Calm - N/A   Overcast
12:55 AM 71.1 °F - 69.8 °F 96% 29.86 in 6.2 mi Calm Calm - N/A   Mostly Cloudy
1:12 AM 69.8 °F - 69.8 °F 100% 29.86 in 6.2 mi Calm Calm - N/A   Mostly Cloudy
1:19 AM 71.6 °F - 69.8 °F 94% 29.86 in 6.2 mi Calm Calm - N/A   Mostly Cloudy
1:24 AM 71.6 °F - 69.8 °F 94% 29.86 in 6.2 mi Calm Calm - N/A   Mostly Cloudy
1:45 AM 71.6 °F - 69.8 °F 94% 29.86 in 6.2 mi Calm Calm - N/A   Mostly Cloudy
1:55 AM 70.9 °F - 69.6 °F 96% 29.86 in 6.2 mi Calm Calm - N/A   Mostly Cloudy
2:55 AM 69.6 °F - 69.4 °F 99% 29.86 in 6.2 mi Calm Calm - N/A   Partly Cloudy
3:00 AM 69.8 °F - 68.0 °F 94% 29.86 in 6.2 mi Calm Calm - N/A   Mostly Cloudy
3:55 AM 69.8 °F - 69.4 °F 99% 29.86 in 6.2 mi Calm Calm - N/A   Mostly Cloudy
3:56 AM 69.8 °F - 69.8 °F 100% 29.86 in 6.2 mi Calm Calm - N/A   Scattered Clouds
4:55 AM 69.8 °F - 69.4 °F 99% 29.89 in 6.2 mi Calm Calm - N/A   Partly Cloudy
5:55 AM 68.9 °F - 68.5 °F 99% 29.90 in 6.2 mi Calm Calm - N/A   Scattered Clouds
6:00 AM 65 °F - - %  in 6 mi Calm Calm - -   Haze
6:31 AM 71.6 °F - 69.8 °F 94% 29.91 in 6.2 mi Calm Calm - N/A   Mostly Cloudy
6:35 AM 71.6 °F - 69.8 °F 94% 29.91 in 6.2 mi Calm Calm - N/A   Mostly Cloudy
6:55 AM 71.2 °F - 70.9 °F 99% 29.90 in 6.2 mi Calm Calm - N/A   Mostly Cloudy
7:10 AM 71.6 °F - 71.6 °F 100% 29.91 in 6.2 mi North 5.8 mph - N/A   Mostly Cloudy
7:33 AM 73.4 °F - 71.6 °F 94% 29.91 in 6.2 mi North 4.6 mph - N/A   Mostly Cloudy
7:55 AM 74.5 °F - 71.1 °F 89% 29.91 in 6.2 mi North 3.5 mph - N/A   Mostly Cloudy
7:57 AM 75.2 °F - 71.6 °F 89% 29.91 in 6.2 mi Variable 3.5 mph - N/A   Mostly Cloudy
8:31 AM 77.0 °F - 71.6 °F 83% 29.90 in 6.2 mi NNW 8.1 mph - N/A   Mostly Cloudy
8:43 AM 77.0 °F - 71.6 °F 83% 29.90 in 6.2 mi NNW 10.4 mph - N/A   Scattered Clouds
8:55 AM 78.1 °F - 71.4 °F 80% 29.90 in 6.2 mi NNW 10.4 mph - N/A   Scattered Clouds
9:55 AM 81.7 °F 85.6 °F 70.7 °F 69% 29.89 in 6.2 mi NNW 10.4 mph - N/A   Clear
10:55 AM 82.8 °F 86.9 °F 70.5 °F 66% 29.87 in 6.2 mi NNW 10.4 mph - N/A   Clear
11:55 AM 85.3 °F 91.1 °F 71.8 °F 64% 29.83 in 6.2 mi NNW 15.0 mph 19.6 mph N/A   Clear
12:00 PM 82 °F - - %  in 6 mi North 6.9 mph - -   Haze
12:55 PM 87.1 °F 93.2 °F 71.8 °F 60% 29.80 in 6.2 mi NNW 15.0 mph 21.9 mph N/A   Clear
1:55 PM 87.3 °F 93.6 °F 71.6 °F 60% 29.77 in 6.2 mi NW 13.8 mph - N/A   Clear
2:55 PM 87.4 °F 93.1 °F 71.1 °F 58% 29.75 in 6.2 mi NW 18.4 mph - N/A   Clear
3:00 PM 78 °F - - %  in 6 mi North 4.6 mph - -   Haze
3:55 PM 84.2 °F 88.7 °F 70.5 °F 63% 29.75 in 6.2 mi NNW 20.7 mph 28.8 mph N/A   Partly Cloudy
4:36 PM 82.4 °F 87.2 °F 71.6 °F 70% 29.80 in 6.2 mi North 12.7 mph - N/A Rain , Thunderstorm Light Rain
4:43 PM 80.6 °F 85.4 °F 73.4 °F 79% 29.80 in 6.2 mi NNW 10.4 mph 19.6 mph N/A Rain Rain
4:55 PM 78.1 °F - 72.1 °F 82% 29.81 in 6.2 mi NNW 11.5 mph - 0.03 in Rain Light Rain
4:59 PM 77.0 °F - 71.6 °F 83% 29.81 in 6.2 mi NNW 16.1 mph - N/A   Overcast
5:02 PM 77.0 °F - 71.6 °F 83% 29.82 in 6.2 mi NNW 16.1 mph - N/A Rain Light Rain
5:12 PM 77.0 °F - 71.6 °F 83% 29.82 in 6.2 mi NNW 17.3 mph - N/A   Overcast
5:40 PM 75.2 °F - 71.6 °F 89% 29.84 in 6.2 mi NNW 11.5 mph - N/A Thunderstorm Thunderstorm
5:55 PM 74.1 °F - 69.8 °F 86% 29.85 in 6.2 mi NNW 12.7 mph - 0.00 in Thunderstorm Thunderstorm
6:00 PM 73 °F - - %  in 6 mi North 4.6 mph - - Thunderstorm Thunderstorm
6:55 PM 73.8 °F - 71.8 °F 93% 29.88 in 6.2 mi NNW 9.2 mph - N/A   Overcast
7:55 PM 73.9 °F - 71.8 °F 93% 29.91 in 6.2 mi Calm Calm - N/A   Mostly Cloudy
8:55 PM 72.7 °F - 72.0 °F 98% 29.92 in 6.2 mi NNW 4.6 mph - N/A   Mostly Cloudy
9:55 PM 72.1 °F - 71.2 °F 97% 29.93 in 6.2 mi North 5.8 mph - N/A   Mostly Cloudy
10:55 PM 71.6 °F - 70.2 °F 95% 29.93 in 6.2 mi Calm Calm - N/A   Overcast
11:55 PM 70.3 °F - 69.4 °F 97% 29.90 in 6.2 mi North 5.8 mph - N/A   Scattered Clouds